Location: Bazugues
(43.4465°N, 0.3432°E)
Time: 09:46:19
(UTC+00:00)

Meteor 2-10 Rocket - Pass Details

Date: 12 January 2026
Orbit: 733 x 881 km, 81.2° (Epoch: 10 February)

Event Time Altitude Azimuth Distance (km) Brightness Sun altitude
Rises 17:10:15 0° 345° (NNW) 3,380 6.7 -5.0°
Reaches altitude 10° 17:12:40 10° 342° (NNW) 2,463 6.1 -5.4°
Maximum altitude 17:18:09 59° 265° (W) 990 4.5 -6.3°
Drops below altitude 10° 17:23:46 10° 187° (S) 2,516 6.6 -7.2°
Sets 17:26:15 0° 183° (S) 3,458 7.3 -7.7°
